Powrót do katalogu

FENGYUN 1C DEB

AktywnySSO
NORAD 30498·DEBRIS·🇨🇳 China

Wystrzelony May 10, 1999 z Taiyuan Satellite Launch Center

Loading…

Następne Przeloty (najbliższe 24 godziny)

TLE

ŚwieżeSource: Space-Track

Epoka: Sep 14, 2026, 02:46 UTC

1 30498U 99025AHL 26257.11532078  .00001580  00000-0  92225-3 0  9995
2 30498  99.2270 318.8913 0100650 112.1452 279.0265 14.07441455996411

Śledź FENGYUN 1C DEB w czasie rzeczywistym z AllMySat

Download on the App Store